[[{"header":{"parameterUnit":"m.s-1","parameterCategory":1,"la1":30.2991,"la2":30.254,"lo1":-89.0895,"lo2":-89.0444,"dy":0.0017,"dx":0.0017,"nx":28,"ny":28,"refTime":"2025-02-23T03:00:00:Z","depth":0,"parameterNumber":2,"parameterNumberName":"U-component_of_WINDS"},"data":[0,0,0,0,0,0,0,0,0,0,0,0,0,0,0,0,0,0,0,0,0,0,0,0,0,0,0,0,0,0,0,0,0,0,0,0,0,0,0,0,0,0,0,0,0,0,0,0,0,0,0,0,0,0,0,0,0,0,-0.9723,-0.9723,0,-0.9713,-0.9713,-0.9713,-0.9646,-0.9645,-0.9643,-0.9642,-0.9632,-0.9634,-0.9635,0,0,0,0,0,0,0,0,0,0,0,0,0,-0.9685,-0.9686,-0.9723,-0.9723,-0.9722,-0.9713,-0.9713,-0.9713,-0.9647,-0.9645,-0.9643,-0.9641,-0.9632,-0.9633,-0.9635,0,0,0,0,0,0,0,0,0,0,0,0,0,-0.9691,-0.9687,-0.9723,-0.9688,-0.9685,-0.9713,-0.9713,-0.9713,-0.9647,-0.9645,-0.9642,-0.964,-0.9631,-0.9633,-0.9635,-0.9695,0,0,-0.9641,-0.9642,0,0,0,0,0,0,0,0,-0.9691,-0.9693,-0.9694,-0.9691,-0.9687,-0.9678,-0.9696,-0.9707,-0.9648,-0.9662,-0.9642,-0.9639,-0.965,-0.965,-0.9653,-0.9695,-0.9694,-0.9641,-0.9642,-0.9643,-0.9644,0,0,0,0,0,0,0,-0.9691,-0.9693,-0.9719,-0.9694,-0.969,-0.9674,-0.9672,-0.9698,-0.9669,-0.966,-0.9655,-0.9655,-0.9647,-0.9652,-0.9653,-0.9694,-0.9641,-0.9643,-0.9644,-0.9645,-0.9786,-0.9788,0,0,0,0,0,0,-0.9695,-0.9693,-0.9719,-0.9719,-0.9683,-0.9676,-0.9674,-0.9684,-0.9669,-0.9664,-0.9657,-0.9652,-0.965,-0.9651,-0.9652,-0.9722,-0.9643,-0.9645,-0.9646,-0.9783,-0.9786,-0.9789,0,0,0,0,0,0,-0.9694,-0.9698,-0.972,-0.9704,-0.9706,-0.968,-0.9691,-0.9685,-0.9689,-0.9667,-0.9661,-0.9667,-0.9648,-0.9649,-0.9685,-0.9721,-0.9646,-0.9647,-0.978,-0.9784,-0.9788,-0.9863,0,0,0,0,0,0,-0.9694,-0.9698,-0.972,-0.9705,-0.9707,-0.9753,-0.9693,-0.9686,-0.9692,-0.9685,-0.9674,-0.967,-0.9646,-0.9683,-0.9687,-0.9722,-0.9649,-0.9777,-0.9782,-0.9787,-0.9858,-0.9869,-0.9879,0,0,0,0,0,-0.9692,-0.9742,-0.9722,-0.9725,-0.9734,-0.9755,-0.9756,-0.9727,-0.9695,-0.9718,-0.9704,-0.967,-0.9716,-0.9687,-0.9691,-0.9728,-0.9774,-0.978,-0.9786,-0.9853,-0.9867,-0.9879,0,0,0,0,0,0,-0.9762,-0.9739,-0.9717,-0.9763,-0.9761,-0.9744,-0.9771,-0.9743,-0.9751,-0.9744,-0.9708,-0.9706,-0.9748,-0.9741,-0.9709,-0.9786,-0.974,-0.9747,-0.9789,-0.9802,-0.9813,-0.9814,-0.965,0,0,0,0,0,-0.9783,-0.9801,-0.978,-0.9823,-0.9823,-0.9798,-0.9806,-0.9784,-0.9781,-0.978,-0.9768,-0.9767,-0.9781,-0.9791,-0.9803,-0.9856,-0.9853,-0.9883,-0.9894,-0.9903,-0.991,-0.9939,-0.9952,-0.9809,-0.9808,-0.9808,0,0,-0.9826,-0.9816,-0.9829,-0.9837,-0.9833,-0.9854,-0.9798,-0.9821,-0.9836,-0.9783,-0.9817,-0.9808,-0.9804,-0.985,-0.9869,-0.9845,-0.9949,-0.9911,-0.9918,-0.992,-0.9946,-0.996,-0.9972,-0.9813,-0.9812,-0.9811,0,0,-0.9915,-0.9909,-0.9944,-0.9941,-0.9936,-0.9919,-0.9928,-0.9914,-0.9907,-0.994,-0.9901,-0.9918,-0.9943,-0.9942,-0.9945,-1.0034,-1.0004,-1.0039,-1.0097,-1.0125,-1.0137,-1.0147,-1.018,-1.0192,-1.0046,-1.0046,-1.0046,0,-0.9969,-0.9998,-0.9966,-0.9992,-0.9997,-0.995,-0.9986,-0.9985,-0.9985,-0.9989,-0.9963,-0.9994,-0.9988,-1.0032,-1.0054,-1.0058,-1.0067,-1.0041,-1.0138,-1.0147,-1.0156,-1.0187,-1.0199,-1.005,-1.005,-1.0049,-1.0049,0,-1.0065,-1.0086,-1.0115,-1.0116,-1.0124,-1.0155,-1.0128,-1.014,-1.0118,-1.0103,-1.0138,-1.0129,-1.0139,-1.0147,-1.0126,-1.019,-1.0175,-1.0144,-1.0097,-1.0175,-1.0203,-1.0215,-1.0057,-1.0055,-1.0054,-1.0053,0,0,-1.0198,-1.0181,-1.0192,-1.0192,-1.0184,-1.0199,-1.0229,-1.0238,-1.025,-1.0251,-1.0275,-1.0297,-1.0268,-1.0272,-1.0249,-1.0274,-1.0347,-1.024,-1.0239,-1.0261,-1.0418,-1.0443,-1.0457,-1.0327,-1.0329,-1.0331,-1.0419,0,-1.0284,-1.0333,-1.0306,-1.0359,-1.0378,-1.0334,-1.036,-1.0358,-1.0345,-1.036,-1.0346,-1.0363,-1.0323,-1.0324,-1.0347,-1.0334,-1.0378,-1.0327,-1.035,-1.0351,-1.0353,-1.0472,-1.0498,-1.0582,-1.043,-1.0432,-1.0433,0,-1.0391,-1.0397,-1.0453,-1.0441,-1.0448,-1.0472,-1.0479,-1.0493,-1.049,-1.0479,-1.0484,-1.0455,-1.0484,-1.0437,-1.0476,-1.0442,-1.045,-1.0445,-1.0447,-1.0449,-1.0398,-1.0478,-1.0608,-1.0621,-1.045,-1.0449,-1.0448,0,-1.0484,-1.0506,-1.0542,-1.0543,-1.0531,-1.0549,-1.0544,-1.0538,-1.0546,-1.0552,-1.0557,-1.0566,-1.0572,-1.058,-1.0555,-1.0523,-1.0598,-1.0549,-1.0591,-1.0592,-1.0609,-1.0609,-1.0743,-1.0613,-1.0613,-1.0613,-1.0612,0,-1.0584,-1.062,-1.0584,-1.0606,-1.0645,-1.0613,-1.0653,-1.0644,-1.0639,-1.066,-1.0622,-1.0641,-1.0607,-1.0624,-1.0605,-1.0641,-1.0643,-1.0636,-1.0631,-1.064,-1.0641,-1.0645,-1.0639,-1.0616,-1.0615,-1.0614,-1.0614,0,-1.0694,-1.0671,-1.0708,-1.0693,-1.069,-1.072,-1.0707,-1.0728,-1.0712,-1.0739,-1.0743,-1.072,-1.0737,-1.0713,-1.0728,-1.0716,-1.0766,-1.0751,-1.0767,-1.0763,-1.0807,-1.0803,-1.0949,-1.0967,-1.0825,-1.0826,-1.0827,0,-1.076,-1.0786,-1.0774,-1.0785,-1.0783,-1.0801,-1.0809,-1.0778,-1.0788,-1.0787,-1.0808,-1.0822,-1.0832,-1.0863,-1.0847,-1.0859,-1.0845,-1.0895,-1.0847,-1.0856,-1.0847,-1.0846,-1.0849,-1.0906,-1.0908,-1.0909,-1.091,0,-1.0879,-1.0867,-1.0879,-1.0889,-1.0899,-1.0905,-1.0907,-1.0919,-1.0887,-1.09,-1.0917,-1.0925,-1.0941,-1.0956,-1.0964,-1.096,-1.093,-1.0925,-1.0936,-1.0946,-1.0955,-1.0952,-1.0795,-1.0922,-1.0921,-1.092,-1.092,-1.0919,-1.0969,-1.0992,-1.0987,-1.1003,-1.1002,-1.1006,-1.1024,-1.1012,-1.1026,-1.1036,-1.1017,-1.104,-1.1037,-1.1044,-1.1044,-1.1061,-1.104,-1.1054,-1.1058,-1.1063,-1.107,-1.0951,-1.1062,-1.1062,-1.1062,-1.1061,-1.1061,0,-1.1088,-1.1083,-1.1097,-1.1103,-1.1116,-1.1086,-1.1088,-1.1101,-1.1121,-1.1121,-1.1132,-1.1153,-1.1167,-1.1153,-1.1165,-1.1182,-1.1169,-1.1187,-1.1186,-1.1185,-1.1088,-1.1079,-1.1197,-1.1197,-1.1197,-1.1197,-1.1197,-1.1197,-1.1151,-1.1187,-1.1174,-1.121,-1.1204,-1.1227,-1.123,-1.1234,-1.1233,-1.1259,-1.1271,-1.1261,-1.1256,-1.1267,-1.128,-1.1275,-1.1282,-1.1305,-1.1296,-1.1205,-1.1192,-1.1179,-1.117,-1.1306,-1.1306,-1.1391,-1.1392,-1.1393]},{"header":{"parameterUnit":"m.s-1","parameterCategory":1,"la1":30.2991,"la2":30.254,"lo1":-89.0895,"lo2":-89.0444,"dy":0.0017,"dx":0.0017,"nx":28,"ny":28,"refTime":"2025-02-23T03:00:00:Z","depth":0,"parameterNumber":3,"parameterNumberName":"V-component_of_WINDS"},"data":[0,0,0,0,0,0,0,0,0,0,0,0,0,0,0,0,0,0,0,0,0,0,0,0,0,0,0,0,0,0,0,0,0,0,0,0,0,0,0,0,0,0,0,0,0,0,0,0,0,0,0,0,0,0,0,0,0,0,-1.2322,-1.2323,0,-1.2361,-1.2362,-1.2362,-1.2361,-1.2361,-1.236,-1.236,-1.2401,-1.2403,-1.2404,0,0,0,0,0,0,0,0,0,0,0,0,0,-1.225,-1.2251,-1.2322,-1.2323,-1.2323,-1.2361,-1.2362,-1.2362,-1.2361,-1.2361,-1.236,-1.2359,-1.2401,-1.2402,-1.2404,0,0,0,0,0,0,0,0,0,0,0,0,0,-1.2284,-1.2251,-1.2322,-1.2327,-1.2328,-1.2361,-1.2362,-1.2362,-1.2361,-1.2361,-1.236,-1.2359,-1.24,-1.2402,-1.2405,-1.2435,0,0,-1.2412,-1.2413,0,0,0,0,0,0,0,0,-1.2282,-1.2287,-1.2326,-1.2327,-1.2328,-1.2355,-1.2351,-1.2387,-1.2362,-1.2349,-1.236,-1.2359,-1.2387,-1.239,-1.2399,-1.2437,-1.2439,-1.2412,-1.2414,-1.2415,-1.2415,0,0,0,0,0,0,0,-1.228,-1.2285,-1.2338,-1.2327,-1.2328,-1.2328,-1.2332,-1.2358,-1.2372,-1.235,-1.235,-1.2354,-1.2387,-1.2397,-1.24,-1.244,-1.2412,-1.2414,-1.2416,-1.2417,-1.2508,-1.2509,0,0,0,0,0,0,-1.2276,-1.2283,-1.2336,-1.2339,-1.2303,-1.233,-1.2335,-1.2347,-1.2371,-1.2374,-1.2355,-1.2354,-1.2393,-1.2397,-1.2402,-1.2441,-1.2415,-1.2417,-1.2418,-1.2507,-1.2508,-1.2509,0,0,0,0,0,0,-1.2275,-1.2281,-1.2335,-1.2311,-1.2318,-1.2333,-1.2347,-1.2349,-1.2358,-1.2375,-1.2378,-1.2362,-1.2393,-1.2398,-1.2428,-1.2443,-1.2418,-1.242,-1.2506,-1.2508,-1.2509,-1.252,0,0,0,0,0,0,-1.2272,-1.228,-1.2291,-1.2311,-1.2319,-1.2359,-1.2347,-1.235,-1.2362,-1.2362,-1.2383,-1.2386,-1.2392,-1.2424,-1.243,-1.2446,-1.2422,-1.2505,-1.2507,-1.2508,-1.2518,-1.2522,-1.2525,0,0,0,0,0,-1.227,-1.2293,-1.2292,-1.2298,-1.2333,-1.236,-1.2365,-1.2372,-1.2364,-1.2376,-1.2387,-1.2385,-1.244,-1.2427,-1.2434,-1.245,-1.2504,-1.2506,-1.2508,-1.2517,-1.2521,-1.2525,0,0,0,0,0,0,-1.2274,-1.2295,-1.2295,-1.2325,-1.2341,-1.236,-1.2375,-1.2375,-1.2394,-1.2393,-1.2401,-1.2406,-1.2436,-1.2446,-1.2431,-1.2483,-1.2471,-1.2475,-1.2475,-1.2479,-1.2482,-1.248,-1.2424,0,0,0,0,0,-1.2279,-1.2298,-1.2316,-1.234,-1.2348,-1.236,-1.2372,-1.2376,-1.2393,-1.24,-1.2413,-1.2431,-1.2452,-1.2466,-1.2486,-1.2519,-1.2525,-1.2534,-1.2537,-1.254,-1.2544,-1.2564,-1.2569,-1.2517,-1.2517,-1.2517,0,0,-1.2288,-1.2302,-1.2314,-1.2342,-1.2354,-1.2376,-1.2366,-1.2388,-1.2405,-1.2404,-1.2433,-1.2443,-1.2463,-1.2495,-1.251,-1.2505,-1.2559,-1.2543,-1.2545,-1.2547,-1.2567,-1.2572,-1.2577,-1.2518,-1.2518,-1.2518,0,0,-1.2316,-1.2328,-1.2351,-1.2364,-1.2384,-1.2392,-1.2398,-1.2417,-1.2425,-1.2454,-1.2454,-1.2474,-1.251,-1.2525,-1.2537,-1.2573,-1.2573,-1.2579,-1.2596,-1.2616,-1.262,-1.2624,-1.2639,-1.2644,-1.2582,-1.2582,-1.2582,0,-1.2326,-1.2357,-1.2363,-1.2386,-1.2399,-1.2399,-1.2424,-1.2436,-1.2462,-1.2472,-1.2465,-1.2512,-1.2525,-1.2562,-1.2571,-1.258,-1.2588,-1.2577,-1.2619,-1.2623,-1.2627,-1.2641,-1.2647,-1.2583,-1.2583,-1.2583,-1.2583,0,-1.2369,-1.239,-1.2407,-1.2432,-1.2447,-1.247,-1.2481,-1.2495,-1.2498,-1.2508,-1.2539,-1.2555,-1.2579,-1.2588,-1.2591,-1.2626,-1.2622,-1.2617,-1.2606,-1.2632,-1.2646,-1.2652,-1.2584,-1.2584,-1.2584,-1.2584,0,0,-1.2401,-1.243,-1.2436,-1.2449,-1.2471,-1.2488,-1.2513,-1.2537,-1.255,-1.2568,-1.259,-1.2621,-1.2617,-1.2631,-1.2636,-1.2653,-1.2684,-1.2646,-1.2647,-1.2655,-1.2726,-1.2732,-1.2738,-1.2683,-1.2684,-1.2685,-1.2726,0,-1.2433,-1.2476,-1.2483,-1.2521,-1.2543,-1.2544,-1.2565,-1.2582,-1.2592,-1.2612,-1.2623,-1.2646,-1.2637,-1.2646,-1.2664,-1.2676,-1.2699,-1.2673,-1.2706,-1.2707,-1.2703,-1.2745,-1.275,-1.2787,-1.2731,-1.2732,-1.2732,0,-1.2476,-1.2496,-1.2537,-1.2559,-1.2568,-1.2587,-1.2611,-1.263,-1.265,-1.2656,-1.2672,-1.2675,-1.2702,-1.2688,-1.2727,-1.2709,-1.2723,-1.2731,-1.2733,-1.2738,-1.2722,-1.2753,-1.2799,-1.2806,-1.274,-1.274,-1.2739,0,-1.2499,-1.2535,-1.2565,-1.2575,-1.2601,-1.2615,-1.2626,-1.2645,-1.266,-1.2681,-1.2691,-1.2714,-1.2728,-1.2747,-1.2757,-1.2746,-1.2796,-1.2782,-1.2803,-1.2803,-1.2815,-1.2815,-1.2866,-1.282,-1.282,-1.282,-1.282,0,-1.2535,-1.2561,-1.2576,-1.2594,-1.2623,-1.2631,-1.266,-1.2671,-1.2689,-1.271,-1.2712,-1.2733,-1.2743,-1.2766,-1.2774,-1.2806,-1.2811,-1.2818,-1.2821,-1.282,-1.2819,-1.283,-1.2829,-1.2821,-1.2821,-1.2821,-1.2821,0,-1.2566,-1.2576,-1.2609,-1.2631,-1.2637,-1.2658,-1.2677,-1.2696,-1.2706,-1.2733,-1.274,-1.2756,-1.2783,-1.2794,-1.2827,-1.2832,-1.287,-1.2869,-1.2863,-1.2865,-1.2886,-1.2885,-1.2949,-1.2959,-1.2903,-1.2904,-1.2904,0,-1.2589,-1.2609,-1.2633,-1.2648,-1.266,-1.2683,-1.2699,-1.2708,-1.2724,-1.2749,-1.2766,-1.2792,-1.2815,-1.2858,-1.2873,-1.2898,-1.29,-1.292,-1.2904,-1.2903,-1.2903,-1.2903,-1.2906,-1.2924,-1.2924,-1.2925,-1.2925,0,-1.2631,-1.2636,-1.2658,-1.2682,-1.2701,-1.2721,-1.274,-1.2752,-1.2764,-1.2783,-1.281,-1.2828,-1.2862,-1.2889,-1.2916,-1.2929,-1.293,-1.293,-1.2937,-1.2937,-1.2934,-1.2939,-1.2874,-1.2929,-1.2929,-1.2928,-1.2928,-1.2928,-1.266,-1.2679,-1.27,-1.2725,-1.274,-1.2759,-1.2778,-1.2791,-1.2814,-1.2843,-1.2847,-1.2877,-1.2898,-1.2935,-1.2948,-1.2973,-1.2968,-1.2977,-1.298,-1.2983,-1.2985,-1.2928,-1.2978,-1.2978,-1.2978,-1.2977,-1.2977,0,-1.2704,-1.2718,-1.2741,-1.2768,-1.2789,-1.2787,-1.2809,-1.2827,-1.2853,-1.2873,-1.2895,-1.2928,-1.2955,-1.2972,-1.3,-1.3017,-1.3018,-1.3024,-1.3024,-1.3028,-1.2987,-1.298,-1.3023,-1.3023,-1.3022,-1.3022,-1.3022,-1.3022,-1.2729,-1.2762,-1.2769,-1.281,-1.2824,-1.2853,-1.2867,-1.2884,-1.29,-1.2937,-1.296,-1.2971,-1.299,-1.302,-1.3045,-1.305,-1.3061,-1.3068,-1.3072,-1.3035,-1.303,-1.3026,-1.3019,-1.3069,-1.3069,-1.3111,-1.3112,-1.3112]}]]